ZF1RC George Town KY current weather conditions

sailwx.info

Wind from 045 at 1 knots gusting 1

Air temperature 26.1° C
Dewpoint 15.5° C

Last reported at 2016-Feb-09 21:50 UTC.
Time now 2016-Feb-09 22:29 UTC

Location: N 19°16' W 081°23'.
View on Google Maps.

See reports from other nearby stations

  
Tides and Currents Weather Stations Pressure Air Temp Water Temp Dewpoint Dewpoint Depression Visibility Wind Speed Wind Dir Waves Ship Positions
date/time (UTC)wind fromknots sea level pressurealtimeterstation pressurevisibilityair tempwater tempwave heightnotes
2016-Feb-09 21:50 045 1 gusting 1 26.1
2016-Feb-09 21:40 045 1 gusting 1 26.1
2016-Feb-09 21:30 045 1 gusting 1 26.1
2016-Feb-09 21:20 045 1 gusting 1 26.1
2016-Feb-09 21:10 045 1 gusting 1 26.1
2016-Feb-09 21:00 045 1 gusting 1 26.1
2016-Feb-09 20:50 045 1 gusting 1 26.1
2016-Feb-09 20:40 045 1 gusting 1 26.1
2016-Feb-09 20:30 045 1 gusting 1 26.1
2016-Feb-09 20:20 045 1 gusting 1 26.1
2016-Feb-09 20:00 045 1 gusting 1 26.1
2016-Feb-09 19:50 045 1 gusting 1 26.1
2016-Feb-09 19:40 045 1 gusting 1 26.1
2016-Feb-09 19:30 045 1 gusting 1 26.1
2016-Feb-09 19:20 354 4 gusting 5 25.6
2016-Feb-09 19:10 011 4 gusting 8 26.1
2016-Feb-09 19:00 046 6 gusting 6 25.6
2016-Feb-09 18:50 047 6 gusting 8 25.6
2016-Feb-09 18:40 054 7 gusting 8 25.0
2016-Feb-09 18:30 348 3 gusting 13 25.0
2016-Feb-09 18:20 029 5 gusting 6 25.6
2016-Feb-09 17:50 049 6 gusting 8 25.0
2016-Feb-09 16:50 011 4 gusting 6 25.0
2016-Feb-09 16:30 003 6 gusting 11 25.0
2016-Feb-09 16:20 018 6 gusting 7 25.0
2016-Feb-09 16:10 019 3 gusting 6 25.0
2016-Feb-09 16:00 324 5 gusting 7 25.0
2016-Feb-09 15:50 006 5 gusting 10 25.0
2016-Feb-09 15:40 043 7 gusting 11 25.0
2016-Feb-09 15:30 005 6 gusting 11 24.4
2016-Feb-09 15:20 007 6 gusting 10 24.4
2016-Feb-09 15:10 052 5 gusting 8 24.4
2016-Feb-09 15:00 042 5 gusting 5 24.4
2016-Feb-09 14:40 073 6 gusting 8 23.9
2016-Feb-09 14:30 024 8 gusting 12 23.9
2016-Feb-09 14:20 014 6 gusting 13 23.9
2016-Feb-09 14:10 001 5 gusting 8 23.3
2016-Feb-09 14:00 016 6 gusting 10 23.3
2016-Feb-09 13:50 341 6 gusting 7 23.3
2016-Feb-09 13:40 033 6 gusting 11 22.8
2016-Feb-09 13:30 354 6 gusting 8 22.8
2016-Feb-09 13:20 006 3 gusting 6 22.8
2016-Feb-09 13:10 044 3 gusting 6 22.8
2016-Feb-09 13:00 041 5 gusting 6 22.2
2016-Feb-09 12:50 354 6 gusting 8 22.2
2016-Feb-09 12:40 016 4 gusting 6 21.7
2016-Feb-09 12:30 024 6 gusting 7 21.7
2016-Feb-09 12:20 006 6 gusting 6 21.7
2016-Feb-09 12:10 002 5 gusting 6 21.7
2016-Feb-09 12:00 007 2 gusting 6 21.7
2016-Feb-09 11:50 013 4 gusting 6 21.7
2016-Feb-09 11:40 017 2 gusting 11 21.7
2016-Feb-09 11:30 014 5 gusting 6 21.7
2016-Feb-09 11:20 009 3 gusting 7 21.7
2016-Feb-09 11:10 024 2 gusting 6 21.7
2016-Feb-09 11:00 006 3 gusting 6 21.7
2016-Feb-09 10:50 045 3 gusting 6 21.7
2016-Feb-09 10:40 035 4 gusting 6 21.7
2016-Feb-09 10:30 018 6 gusting 7 21.7
2016-Feb-09 10:20 023 4 gusting 6 21.7
2016-Feb-09 10:10 344 6 gusting 10 22.2
2016-Feb-09 10:00 338 7 gusting 10 22.2
2016-Feb-09 09:50 340 6 gusting 10 22.2
2016-Feb-09 09:40 038 6 gusting 8 21.7
2016-Feb-09 09:30 027 4 gusting 6 21.7
2016-Feb-09 09:20 028 5 gusting 8 21.7
2016-Feb-09 09:10 21.7
2016-Feb-09 09:00 017 3 gusting 7 21.7
2016-Feb-09 08:50 344 6 gusting 8 21.7
2016-Feb-09 08:40 001 4 gusting 6 21.7
2016-Feb-09 08:30 020 5 gusting 7 21.7
2016-Feb-09 08:20 021 2 gusting 7 21.7
2016-Feb-09 08:10 009 6 gusting 7 21.7
2016-Feb-09 08:00 21.7
2016-Feb-09 07:50 020 5 gusting 6 21.7
2016-Feb-09 07:40 030 5 gusting 7 21.7
2016-Feb-09 07:30 029 3 gusting 8 21.7
2016-Feb-09 07:20 039 5 gusting 6 21.7
2016-Feb-09 07:10 018 6 gusting 8 21.7
2016-Feb-09 07:00 345 6 gusting 7 21.7
2016-Feb-09 06:50 011 6 gusting 11 21.7
2016-Feb-09 06:40 339 10 gusting 13 21.7
2016-Feb-09 06:30 21.7
2016-Feb-09 06:20 007 8 gusting 12 22.2
2016-Feb-09 06:10 043 4 gusting 6 22.2
2016-Feb-09 06:00 348 6 gusting 8 22.2
2016-Feb-09 05:50 006 5 gusting 6 22.2
2016-Feb-09 05:40 034 3 gusting 6 22.2
2016-Feb-09 05:30 015 5 gusting 6 21.7
2016-Feb-09 05:20 055 4 gusting 6 21.7
2016-Feb-09 05:10 318 3 gusting 8 21.7
2016-Feb-09 05:00 038 3 gusting 7 21.7
2016-Feb-09 04:50 344 5 gusting 6 21.7
2016-Feb-09 04:40 021 5 gusting 6 21.7
2016-Feb-09 04:30 030 4 gusting 5 21.7
2016-Feb-09 04:20 026 3 gusting 6 21.7
2016-Feb-09 04:10 023 5 gusting 6 21.7
2016-Feb-09 04:00 058 3 gusting 6 21.7
2016-Feb-09 03:50 020 6 gusting 6 21.1
2016-Feb-09 03:40 340 3 gusting 6 21.1
2016-Feb-09 03:30 023 2 gusting 5 21.1
2016-Feb-09 03:20 013 3 gusting 5 21.1
2016-Feb-09 03:10 036 2 gusting 4 21.1
2016-Feb-09 03:00 036 5 gusting 5 21.1
2016-Feb-09 02:50 019 3 gusting 5 21.1
2016-Feb-09 02:40 038 6 gusting 8 21.1
2016-Feb-09 02:30 055 2 gusting 7 21.1
2016-Feb-09 02:20 080 5 gusting 6 21.1
2016-Feb-09 02:10 349 4 gusting 6 21.1
2016-Feb-09 02:00 319 6 gusting 7 21.1
2016-Feb-09 01:50 21.1
2016-Feb-09 01:40 019 6 gusting 10 21.1
2016-Feb-09 01:30 21.1
2016-Feb-09 01:20 016 6 gusting 6 21.1
2016-Feb-09 01:10 073 4 gusting 6 21.1
2016-Feb-09 01:00 351 4 gusting 8 21.1
2016-Feb-09 00:50 340 4 gusting 6 21.1
2016-Feb-09 00:40 351 4 gusting 6 21.1
2016-Feb-09 00:30 023 5 gusting 6 21.1
2016-Feb-09 00:20 027 3 gusting 6 21.1
2016-Feb-09 00:10 028 2 gusting 6 21.1
2016-Feb-09 00:00 002 2 gusting 10 21.1
2016-Feb-08 23:50 008 3 gusting 6 21.1
2016-Feb-08 23:40 026 5 gusting 11 21.7
2016-Feb-08 23:30 036 2 gusting 7 21.7
2016-Feb-08 23:20 008 7 gusting 10 21.7
2016-Feb-08 23:10 029 5 gusting 6 21.7
2016-Feb-08 23:00 343 5 gusting 8 21.7
2016-Feb-08 22:54 062 6 gusting 7 22.2
2016-Feb-08 22:50 011 3 gusting 10 22.2
2016-Feb-08 22:40 029 4 gusting 7 22.2
2016-Feb-08 22:30 040 3 gusting 8 22.2
2016-Feb-08 22:20 039 6 gusting 12 22.2
2016-Feb-08 22:10 035 1 gusting 8 22.8
2016-Feb-08 22:00 028 7 gusting 8 22.8
2016-Feb-08 21:50 047 5 gusting 10 22.8
2016-Feb-08 21:40 029 7 gusting 10 22.8
2016-Feb-08 21:30 024 7 gusting 11 22.8
2016-Feb-08 21:20 048 7 gusting 7 22.8
2016-Feb-08 21:10 001 8 gusting 11 22.8
2016-Feb-08 21:00 020 7 gusting 11 22.8
2016-Feb-08 20:50 012 7 gusting 12 23.3
2016-Feb-08 20:40 038 7 gusting 8 23.3
2016-Feb-08 20:30 039 9 gusting 13 22.8
2016-Feb-08 20:20 066 7 gusting 11 23.3
2016-Feb-08 20:10 005 5 gusting 12 23.3
2016-Feb-08 20:00 052 5 gusting 12 23.3
2016-Feb-08 19:50 013 5 gusting 10 23.3
2016-Feb-08 19:40 23.9
2016-Feb-08 19:30 034 9 gusting 11 24.4
2016-Feb-08 19:20 006 8 gusting 11 23.9
2016-Feb-08 19:10 020 6 gusting 8 23.9
2016-Feb-08 19:00 041 9 gusting 13 23.3
2016-Feb-08 18:50 037 10 gusting 13 23.3
2016-Feb-08 18:40 065 6 gusting 11 23.3
2016-Feb-08 18:30 040 5 gusting 12 23.9
2016-Feb-08 18:20 001 5 gusting 13 23.9
2016-Feb-08 18:10 016 7 gusting 10 23.9
2016-Feb-08 18:00 033 7 gusting 12 23.9
2016-Feb-08 17:50 23.9
2016-Feb-08 17:40 029 7 gusting 8 23.9
2016-Feb-08 17:30 014 7 gusting 11 23.3
2016-Feb-08 17:20 345 5 gusting 13 23.3
2016-Feb-08 17:10 344 7 gusting 13 23.3
2016-Feb-08 17:00 016 10 gusting 13 23.3
2016-Feb-08 16:50 046 6 gusting 7 23.3
2016-Feb-08 16:40 004 5 gusting 11 23.9
2016-Feb-08 16:30 026 8 gusting 12 23.9
2016-Feb-08 16:20 078 6 gusting 8 23.9
2016-Feb-08 16:10 040 9 gusting 14 23.9
2016-Feb-08 16:00 011 7 gusting 12 23.9
2016-Feb-08 15:50 047 4 gusting 10 23.3
2016-Feb-08 15:40 016 8 gusting 12 23.3
2016-Feb-08 15:30 041 8 gusting 11 22.8
2016-Feb-08 15:20 032 6 gusting 7 22.2
2016-Feb-08 15:10 346 4 gusting 8 21.7
2016-Feb-08 15:00 017 3 gusting 6 21.7
2016-Feb-08 14:50 030 6 gusting 8 21.1
2016-Feb-08 14:40 048 6 gusting 7 21.1
2016-Feb-08 14:30 058 5 gusting 11 21.7
2016-Feb-08 14:20 032 5 gusting 7 22.2
2016-Feb-08 14:10 036 7 gusting 7 22.2
2016-Feb-08 14:00 346 5 gusting 6 22.2
2016-Feb-08 13:50 024 6 gusting 7 22.2
2016-Feb-08 13:40 003 5 gusting 10 22.2
2016-Feb-08 13:30 021 6 gusting 12 22.2
2016-Feb-08 13:20 020 4 gusting 8 22.2
2016-Feb-08 13:10 353 2 gusting 11 22.2
2016-Feb-08 13:00 045 6 gusting 10 21.7
2016-Feb-08 12:50 054 5 gusting 7 21.7
2016-Feb-08 12:40 015 7 gusting 10 21.7
2016-Feb-08 12:30 047 6 gusting 10 21.7
2016-Feb-08 12:20 024 7 gusting 11 21.7
2016-Feb-08 12:10 055 5 gusting 6 21.7
2016-Feb-08 12:00 036 4 gusting 6 21.7
2016-Feb-08 11:50 069 2 gusting 6 21.7
2016-Feb-08 11:40 013 4 gusting 6 21.7
2016-Feb-08 11:30 040 4 gusting 6 21.7
2016-Feb-08 11:20 037 6 gusting 8 22.2
2016-Feb-08 11:10 063 4 gusting 6 22.2
2016-Feb-08 11:00 048 3 gusting 6 22.2
2016-Feb-08 10:50 354 4 gusting 6 22.2
2016-Feb-08 10:40 013 2 gusting 6 22.2
2016-Feb-08 10:30 008 7 gusting 8 22.2
2016-Feb-08 10:20 028 5 gusting 5 22.2
2016-Feb-08 10:10 041 6 gusting 7 22.2
2016-Feb-08 10:00 011 4 gusting 6 22.2
2016-Feb-08 09:50 027 2 gusting 6 22.2
2016-Feb-08 09:40 049 2 gusting 6 21.7
2016-Feb-08 09:30 004 5 gusting 7 21.7
2016-Feb-08 09:20 036 3 gusting 7 21.7
2016-Feb-08 09:10 040 4 gusting 8 21.7
2016-Feb-08 09:00 027 5 gusting 7 21.7
2016-Feb-08 08:50 058 5 gusting 7 21.7
2016-Feb-08 08:40 053 4 gusting 6 22.2
2016-Feb-08 08:30 041 3 gusting 7 22.2
2016-Feb-08 08:20 019 5 gusting 7 22.2
2016-Feb-08 08:10 038 6 gusting 7 22.2
2016-Feb-08 08:00 025 5 gusting 7 22.8
2016-Feb-08 07:50 030 4 gusting 5 22.2
2016-Feb-08 07:40 012 1 gusting 6 22.8
2016-Feb-08 07:30 038 3 gusting 6 22.8
2016-Feb-08 07:20 045 5 gusting 6 22.2
2016-Feb-08 07:10 042 3 gusting 6 22.8
2016-Feb-08 07:00 064 4 gusting 6 22.8
2016-Feb-08 06:50 027 6 gusting 6 22.8
2016-Feb-08 06:40 028 5 gusting 8 22.8
2016-Feb-08 06:30 035 1 gusting 8 22.8
2016-Feb-08 06:20 025 7 gusting 10 22.2
2016-Feb-08 06:10 035 7 gusting 7 22.8
2016-Feb-08 06:00 004 6 gusting 8 22.2
2016-Feb-08 05:50 036 3 gusting 8 22.2
2016-Feb-08 05:40 041 6 gusting 6 22.2
2016-Feb-08 05:30 027 4 gusting 6 22.2
2016-Feb-08 05:20 001 5 gusting 6 22.2
2016-Feb-08 05:10 022 3 gusting 8 22.2
2016-Feb-08 05:00 021 5 gusting 10 22.2
2016-Feb-08 04:50 023 4 gusting 6 22.8
2016-Feb-08 04:40 338 5 gusting 6 22.2
2016-Feb-08 04:30 004 8 gusting 10 22.8
2016-Feb-08 04:20 040 7 gusting 8 22.8
2016-Feb-08 04:10 353 5 gusting 8 22.8
2016-Feb-08 04:00 075 4 gusting 6 22.8
2016-Feb-08 03:50 352 6 gusting 8 22.8
2016-Feb-08 03:40 049 6 gusting 12 22.8
2016-Feb-08 03:30 029 7 gusting 10 22.8
2016-Feb-08 03:20 003 6 gusting 7 22.8
2016-Feb-08 03:10 047 4 gusting 7 22.8
2016-Feb-08 03:00 045 5 gusting 10 22.8
2016-Feb-08 02:50 028 6 gusting 7 22.8
2016-Feb-08 02:40 048 6 gusting 10 22.8
2016-Feb-08 02:30 025 6 gusting 10 22.8
2016-Feb-08 02:20 035 4 gusting 8 22.8
2016-Feb-08 02:10 024 8 gusting 8 23.3
2016-Feb-08 02:00 031 7 gusting 7 22.8
2016-Feb-08 01:50 021 7 gusting 12 22.8
2016-Feb-08 01:40 014 7 gusting 12 22.8
2016-Feb-08 01:30 033 3 gusting 6 22.8
2016-Feb-08 01:20 066 3 gusting 6 22.8
2016-Feb-08 01:10 016 5 gusting 8 22.2
2016-Feb-08 01:00 068 4 gusting 10 22.2
2016-Feb-08 00:50 015 6 gusting 11 22.8
2016-Feb-08 00:40 001 4 gusting 8 23.3
2016-Feb-08 00:30 026 5 gusting 11 23.3
2016-Feb-08 00:20 352 6 gusting 12 23.3
2016-Feb-08 00:10 019 6 gusting 8 23.3
2016-Feb-08 00:00 318 6 gusting 8 23.3
2016-Feb-07 23:50 331 8 gusting 10 23.3
2016-Feb-07 23:40 004 10 gusting 13 23.3
2016-Feb-07 23:30 021 2 gusting 7 23.9
2016-Feb-07 23:20 042 3 gusting 6 23.9
2016-Feb-07 23:10 030 7 gusting 10 23.9
2016-Feb-07 23:00 020 6 gusting 13 23.9
2016-Feb-07 22:54 334 6 gusting 11 23.9
2016-Feb-07 22:50 002 10 gusting 13 24.4
2016-Feb-07 22:40 354 4 gusting 6 23.9
2016-Feb-07 22:30 018 6 gusting 8 23.9
2016-Feb-07 22:20 342 6 gusting 8 23.9
2016-Feb-07 22:10 024 5 gusting 8 24.4
2016-Feb-07 22:00 339 5 gusting 7 24.4